Meadville, PA

10:00 PM EDT on July 25, 2017 (GMT -0400)
Port Meadville

Weather History for KGKJ - November, 2013

Change the Weather History Date:

Saturday, November 23, 2013

  Actual Average Record
Temperature  
Mean Temperature 25 °F -  
Max Temperature 33 °F 44 °F 69 °F (1953)
Min Temperature 17 °F 28 °F 7 °F (1971)
Degree Days  
Heating Degree Days 40    
Moisture  
Dew Point 18 °F    
Average Humidity 79    
Maximum Humidity 93    
Minimum Humidity 59    
Precipitation  
Precipitation 0.00 in - - ()
Sea Level Pressure  
Sea Level Pressure 30.20 in    
Wind  
Wind Speed 10 mph (WNW)    
Max Wind Speed 21 mph    
Max Gust Speed 31 mph    
Visibility 4 miles    
Events Fog , Snow    
Averages and records for this station are not official NWS values.
T = Trace of Precipitation, MM = Missing Value Source: NWS Daily Summary

Daily Weather History Graph

Daily Weather History Graph

Search for Another Location

Airport or City:

Trip Planner

Search our weather history database for the weather conditions in past years. The results will help you decide how hot, cold, wet, or windy it might be!

Date:

Astronomy

Nov. 23, 2013 Rise Set
Actual Time 7:19 AM EST 4:54 PM EST
Civil Twilight 6:49 AM EST 5:25 PM EST
Nautical Twilight 6:15 AM EST 5:59 PM EST
Astronomical Twilight 5:41 AM EST 6:32 PM EST
Moon 10:23 PM EST (11/23) 11:34 AM EST (11/23)
Length of Visible Light 10h 35m
Length of Day
9h 35m
Waning Gibbous, 70% of the Moon is Illuminated
Nov 23
Waning Gibbous
Nov 25
Last Quarter
Dec 2
New
Dec 9
First Quarter
Dec 17
Full

Hourly Weather History & Observations

Time (EST) Temp. Windchill Dew Point Humidity Pressure Visibility Wind Dir Wind Speed Gust Speed Precip Events Conditions
12:50 AM 30.2 °F 23.4 °F 24.8 °F 80% 30.23 in 10.0 mi NW 6.9 mph - N/A   Scattered Clouds
12:53 AM 30.9 °F 24.3 °F 24.1 °F 76% 30.26 in 10.0 mi NW 6.9 mph - N/A   Partly Cloudy
1:53 AM 30.0 °F 25.2 °F 24.1 °F 79% 30.26 in 10.0 mi NW 4.6 mph - N/A   Clear
2:53 AM 28.9 °F - 24.1 °F 82% 30.26 in 10.0 mi Calm Calm - N/A   Clear
3:36 AM 28.4 °F - 24.8 °F 86% 30.21 in 10.0 mi Calm Calm - N/A   Mostly Cloudy
3:44 AM 28.4 °F 24.6 °F 24.8 °F 86% 30.21 in 10.0 mi NW 3.5 mph - N/A   Scattered Clouds
3:53 AM 28.9 °F 25.2 °F 24.1 °F 82% 30.25 in 10.0 mi WNW 3.5 mph - N/A   Mostly Cloudy
4:53 AM 28.9 °F 23.9 °F 24.1 °F 82% 30.23 in 10.0 mi West 4.6 mph - N/A   Mostly Cloudy
5:53 AM 30.0 °F 24.1 °F 24.1 °F 79% 30.22 in 10.0 mi West 5.8 mph 16.1 mph N/A   Overcast
6:53 AM 30.9 °F 25.2 °F 23.0 °F 72% 30.23 in 10.0 mi WNW 5.8 mph - N/A   Overcast
7:53 AM 30.0 °F 20.5 °F 21.9 °F 72% 30.22 in 10.0 mi West 11.5 mph - N/A   Overcast
8:53 AM 30.9 °F 22.8 °F 23.0 °F 72% 30.21 in 10.0 mi West 9.2 mph - N/A   Overcast
9:00 AM 30.2 °F 22.6 °F 24.8 °F 80% 30.16 in 10.0 mi WSW 8.1 mph - N/A   Overcast
9:30 AM 30.2 °F 23.4 °F 23.0 °F 75% 30.16 in 10.0 mi SW 6.9 mph - N/A   Overcast
9:53 AM 32.0 °F 24.2 °F 24.1 °F 73% 30.19 in 10.0 mi WSW 9.2 mph 17.3 mph N/A   Mostly Cloudy
10:15 AM 33.8 °F 23.9 °F 24.8 °F 70% 30.14 in 10.0 mi West 15.0 mph 21.9 mph N/A   Mostly Cloudy
10:53 AM 32.0 °F 21.6 °F 24.1 °F 73% 30.18 in 8.0 mi West 15.0 mph 21.9 mph 0.00 in Snow Light Snow
11:31 AM 30.2 °F 19.3 °F 19.4 °F 64% 30.13 in 10.0 mi West 15.0 mph 26.5 mph 0.00 in   Overcast
11:53 AM 30.9 °F 19.4 °F 18.0 °F 59% 30.17 in 10.0 mi West 17.3 mph 28.8 mph 0.00 in Snow Light Snow
12:44 PM 28.4 °F 17.0 °F 19.4 °F 69% 30.12 in 2.0 mi WNW 15.0 mph 23.0 mph 0.00 in Snow Light Snow
12:49 PM 28.4 °F 18.0 °F 21.2 °F 74% 30.12 in 0.8 mi WNW 12.7 mph 25.3 mph 0.00 in Snow Light Snow
12:53 PM 27.0 °F 16.7 °F 23.0 °F 85% 30.17 in 0.8 mi West 11.5 mph 25.3 mph 0.00 in Snow Light Snow
1:05 PM 26.6 °F 14.3 °F 23.0 °F 86% 30.12 in 1.2 mi WNW 16.1 mph 25.3 mph 0.00 in Snow Light Snow
1:12 PM 26.6 °F 15.2 °F 23.0 °F 86% 30.12 in 0.8 mi WNW 13.8 mph 25.3 mph 0.00 in Snow Light Snow
1:31 PM 26.6 °F 15.7 °F 24.8 °F 93% 30.11 in 1.0 mi West 12.7 mph 19.6 mph 0.00 in Snow Light Snow
1:37 PM 26.6 °F 15.7 °F 23.0 °F 86% 30.11 in 2.0 mi WNW 12.7 mph 21.9 mph 0.00 in Snow Light Snow
1:45 PM 28.4 °F 20.4 °F 23.0 °F 80% 30.11 in 6.0 mi West 8.1 mph - 0.00 in Snow Light Snow
1:53 PM 28.0 °F 19.3 °F 23.0 °F 81% 30.15 in 2.5 mi WNW 9.2 mph 18.4 mph 0.00 in Snow Light Snow
2:01 PM 28.4 °F 20.4 °F 23.0 °F 80% 30.10 in 3.0 mi West 8.1 mph - 0.00 in Snow Light Snow
2:08 PM 28.4 °F 19.1 °F 23.0 °F 80% 30.11 in 3.0 mi WNW 10.4 mph - 0.00 in Snow Light Snow
2:10 PM 28.4 °F 19.1 °F 23.0 °F 80% 30.11 in 1.8 mi WNW 10.4 mph - 0.00 in Snow Light Snow
2:13 PM 28.4 °F 17.0 °F 23.0 °F 80% 30.11 in 0.8 mi NW 15.0 mph 25.3 mph 0.00 in Snow Light Snow
2:24 PM 28.4 °F 17.0 °F 21.2 °F 74% 30.11 in 2.5 mi NW 15.0 mph 25.3 mph 0.00 in Snow Light Snow
2:30 PM 28.4 °F 18.5 °F 21.2 °F 74% 30.11 in 9.0 mi WNW 11.5 mph 24.2 mph 0.00 in   Overcast
2:53 PM 28.0 °F 16.1 °F 19.9 °F 72% 30.17 in 10.0 mi NW 16.1 mph 26.5 mph 0.00 in   Overcast
3:10 PM 26.6 °F 16.2 °F 21.2 °F 80% 30.13 in 2.0 mi NW 11.5 mph 20.7 mph 0.00 in Snow Light Snow
3:26 PM 24.8 °F 11.5 °F 21.2 °F 86% 30.14 in 1.2 mi NW 17.3 mph 27.6 mph 0.00 in Snow Light Snow
3:53 PM 25.0 °F 13.1 °F 19.0 °F 78% 30.20 in 1.8 mi WNW 13.8 mph 26.5 mph 0.00 in Snow Light Snow
4:00 PM 24.8 °F 11.9 °F 19.4 °F 80% 30.15 in 3.0 mi WNW 16.1 mph 24.2 mph 0.00 in Snow Light Snow
4:11 PM 24.8 °F 14.0 °F 17.6 °F 74% 30.15 in 7.0 mi WNW 11.5 mph 31.1 mph 0.00 in Snow Light Snow
4:38 PM 24.8 °F 12.9 °F 17.6 °F 74% 30.16 in 3.0 mi West 13.8 mph 26.5 mph 0.00 in Snow Light Snow
4:43 PM 24.8 °F 14.6 °F 17.6 °F 74% 30.17 in 1.5 mi NW 10.4 mph 26.5 mph 0.00 in Snow Light Snow
4:53 PM 23.0 °F 13.1 °F 18.0 °F 81% 30.23 in 0.8 mi WNW 9.2 mph 21.9 mph 0.00 in Snow Light Snow
5:00 PM 23.0 °F 10.6 °F 19.4 °F 86% 30.17 in 1.0 mi WNW 13.8 mph 20.7 mph 0.00 in Snow Light Snow
5:07 PM 21.2 °F 7.8 °F 19.4 °F 93% 30.17 in 0.5 mi WNW 15.0 mph 27.6 mph 0.00 in Fog , Snow Snow
5:15 PM 21.2 °F 8.3 °F 19.4 °F 93% 30.18 in 0.2 mi NW 13.8 mph 26.5 mph 0.00 in Fog , Snow Snow
5:25 PM 21.2 °F 8.3 °F 19.4 °F 93% 30.18 in 0.2 mi WNW 13.8 mph 24.2 mph 0.00 in Fog , Snow Heavy Snow
5:30 PM 21.2 °F 6.0 °F 17.6 °F 86% 30.19 in 0.5 mi NW 19.6 mph 27.6 mph 0.00 in Fog , Snow Snow
5:37 PM 21.2 °F 7.8 °F 17.6 °F 86% 30.19 in 1.0 mi NW 15.0 mph 31.1 mph 0.00 in Snow Light Snow
5:42 PM 21.2 °F 9.5 °F 15.8 °F 80% 30.19 in 3.0 mi NW 11.5 mph 21.9 mph 0.00 in Snow Light Snow
5:53 PM 21.9 °F 10.4 °F 16.0 °F 78% 30.25 in 9.0 mi WNW 11.5 mph 19.6 mph 0.00 in   Overcast
5:59 PM 21.2 °F 8.9 °F 15.8 °F 80% 30.20 in 1.8 mi NW 12.7 mph 19.6 mph 0.00 in Snow Light Snow
6:05 PM 21.2 °F 8.9 °F 17.6 °F 86% 30.20 in 0.2 mi NW 12.7 mph 21.9 mph 0.00 in Fog , Snow Heavy Snow
6:09 PM 21.2 °F 5.6 °F 17.6 °F 86% 30.20 in 0.2 mi NW 20.7 mph 29.9 mph 0.00 in Fog , Snow Heavy Snow
6:25 PM 21.2 °F 7.3 °F 15.8 °F 80% 30.20 in 1.0 mi WNW 16.1 mph 29.9 mph 0.00 in Snow Light Snow
6:28 PM 21.2 °F 7.3 °F 15.8 °F 80% 30.21 in 3.0 mi NW 16.1 mph 26.5 mph 0.00 in Snow Light Snow
6:47 PM 21.2 °F 7.8 °F 14.0 °F 74% 30.21 in 1.8 mi NW 15.0 mph 21.9 mph 0.00 in Snow Light Snow
6:53 PM 21.0 °F 8.1 °F 15.1 °F 78% 30.27 in 1.0 mi NW 13.8 mph 23.0 mph 0.00 in Snow Light Snow
7:01 PM 19.4 °F 6.6 °F 15.8 °F 86% 30.22 in 0.8 mi NW 12.7 mph 23.0 mph 0.00 in Snow Light Snow
7:07 PM 19.4 °F 6.6 °F 14.0 °F 80% 30.22 in 2.0 mi NW 12.7 mph 19.6 mph 0.00 in Snow Light Snow
7:14 PM 19.4 °F 5.5 °F 15.8 °F 86% 30.22 in 0.8 mi NW 15.0 mph 24.2 mph 0.00 in Snow Light Snow
7:27 PM 19.4 °F 4.1 °F 12.2 °F 74% 30.23 in 2.5 mi WNW 18.4 mph 24.2 mph 0.00 in Snow Light Snow
7:33 PM 19.4 °F 4.5 °F 14.0 °F 80% 30.23 in 0.8 mi WNW 17.3 mph 26.5 mph 0.00 in Snow Light Snow
7:50 PM 19.4 °F 6.0 °F 15.8 °F 86% 30.23 in 0.2 mi WNW 13.8 mph 26.5 mph 0.00 in Fog , Snow Snow
7:53 PM 19.0 °F 6.1 °F 15.1 °F 85% 30.29 in 0.2 mi WNW 12.7 mph 23.0 mph 0.00 in Fog , Snow Snow
8:04 PM 19.4 °F 5.5 °F 15.8 °F 86% 30.24 in 0.5 mi NW 15.0 mph 21.9 mph 0.00 in Fog , Snow Snow
8:33 PM 19.4 °F 10.4 °F 14.0 °F 80% 30.24 in 1.0 mi WNW 6.9 mph 19.6 mph 0.00 in Snow Light Snow
8:41 PM 19.4 °F 5.5 °F 12.2 °F 74% 30.24 in 3.0 mi WNW 15.0 mph 23.0 mph 0.00 in Snow Light Snow
8:53 PM 19.0 °F 4.5 °F 10.9 °F 71% 30.30 in 8.0 mi WNW 16.1 mph 26.5 mph 0.00 in   Overcast
8:57 PM 19.4 °F 7.2 °F 12.2 °F 74% 30.24 in 2.0 mi WNW 11.5 mph 26.5 mph 0.00 in Snow Light Snow
9:03 PM 19.4 °F 6.0 °F 12.2 °F 74% 30.24 in 0.8 mi WNW 13.8 mph 21.9 mph 0.00 in Snow Light Snow
9:14 PM 19.4 °F 6.6 °F 14.0 °F 80% 30.24 in 0.2 mi WNW 12.7 mph 21.9 mph 0.00 in Snow Heavy Snow
9:19 PM 17.6 °F 3.7 °F 14.0 °F 86% 30.24 in 1.0 mi WNW 13.8 mph 21.9 mph 0.00 in Snow Light Snow
9:24 PM 19.4 °F 6.6 °F 12.2 °F 74% 30.24 in 3.0 mi WNW 12.7 mph 20.7 mph 0.00 in Snow Light Snow
9:50 PM 17.6 °F 5.7 °F 10.4 °F 73% 30.24 in 8.0 mi WNW 10.4 mph 23.0 mph 0.00 in   Mostly Cloudy
9:53 PM 18.0 °F 6.1 °F 10.9 °F 74% 30.30 in 9.0 mi West 10.4 mph 23.0 mph 0.00 in   Mostly Cloudy
10:04 PM 19.4 °F 7.2 °F 12.2 °F 74% 30.24 in 2.5 mi West 11.5 mph 19.6 mph 0.00 in Snow Light Snow
10:09 PM 17.6 °F 4.3 °F 12.2 °F 79% 30.24 in 0.8 mi WNW 12.7 mph 21.9 mph 0.00 in Snow Light Snow
10:24 PM 17.6 °F 4.3 °F 12.2 °F 79% 30.25 in 2.0 mi WNW 12.7 mph 19.6 mph 0.00 in Snow Light Snow
10:29 PM 17.6 °F 3.7 °F 12.2 °F 79% 30.25 in 0.8 mi WNW 13.8 mph 23.0 mph 0.00 in Snow Light Snow
10:34 PM 17.6 °F 4.3 °F 12.2 °F 79% 30.25 in 0.2 mi WNW 12.7 mph 23.0 mph 0.00 in Snow Heavy Snow
10:38 PM 17.6 °F 5.7 °F 14.0 °F 86% 30.25 in 0.5 mi WNW 10.4 mph 21.9 mph 0.00 in Fog , Snow Light Snow
10:51 PM 17.6 °F 7.3 °F 14.0 °F 86% 30.25 in 0.5 mi WNW 8.1 mph - 0.00 in Fog , Snow Snow
10:53 PM 18.0 °F 6.1 °F 14.0 °F 84% 30.31 in 0.5 mi WNW 10.4 mph - 0.00 in Fog , Snow Snow
11:03 PM 17.6 °F 3.7 °F 12.2 °F 79% 30.25 in 0.8 mi WNW 13.8 mph 23.0 mph 0.00 in Snow Light Snow
11:11 PM 17.6 °F 3.7 °F 12.2 °F 79% 30.25 in 0.8 mi WNW 13.8 mph 19.6 mph 0.00 in Snow Light Snow
11:18 PM 17.6 °F 4.3 °F 12.2 °F 79% 30.25 in 1.0 mi WNW 12.7 mph 23.0 mph 0.00 in Snow Light Snow
11:35 PM 17.6 °F 3.7 °F 12.2 °F 79% 30.25 in 0.5 mi WNW 13.8 mph 23.0 mph 0.00 in Snow Snow
11:53 PM 19.0 °F 6.1 °F 12.0 °F 74% 30.31 in 1.2 mi West 12.7 mph - 0.00 in Snow Light Snow